Lapse_Rate
6.2 6.2 6.5 6.9 7.1 7.0 7.1 7.0 7.0 7.2 7.4 8.1 9.2 8.6 7.7 7.8 7.8 7.6 7.5 7.7 8.0 8.2 8.2 8.3 8.6 8.4 8.6 8.1 7.5 7.2 7.8 8.4 8.5 8.4 8.3 8.3 8.0 8.2 8.5 7.8 7.7 7.5 7.6 8.0
6.3 6.6 6.9 6.8 6.7 6.6 6.7 6.6 6.2 6.6 6.8 7.2 7.3 7.3 7.2 7.6 8.4 7.9 7.7 7.8 7.7 8.1 8.2 8.4 8.8 8.8 8.8 7.8 7.6 7.5 8.1 8.3 8.5 8.4 8.5 8.5 8.2 8.5 8.4 7.9 7.8 7.4 7.6 8.0
6.4 6.6 6.6 6.6 6.5 6.6 6.7 6.7 6.6 6.8 6.8 7.0 6.6 7.0 7.0 7.2 7.6 7.6 7.7 7.5 7.7 7.8 7.9 7.9 8.3 8.3 8.0 7.9 7.3 6.9 7.7 8.4 8.5 8.6 8.5 8.3 8.1 8.4 8.1 7.5 7.5 7.6 7.6 7.9
6.3 6.4 6.6 6.7 6.7 6.9 6.9 7.3 7.1 7.0 7.0 6.9 7.4 7.7 6.9 7.0 7.0 7.3 7.2 7.6 7.8 7.7 7.7 7.8 7.7 7.7 7.6 7.3 7.1 7.1 7.9 8.3 8.5 8.5 8.3 8.2 8.2 8.6 8.1 7.2 7.4 7.5 7.7 7.9
6.7 7.1 7.2 6.9 7.0 7.3 6.4 7.5 7.8 7.8 7.5 7.4 7.2 7.8 6.1 6.7 6.7 7.2 7.4 7.6 7.9 7.8 7.8 7.8 7.7 7.5 7.3 7.3 7.4 7.4 7.2 7.6 8.1 8.3 8.2 8.0 8.1 8.3 7.7 7.5 7.3 7.5 7.8 7.7
8.1 9.0 8.8 7.9 7.6 7.8 7.7 7.9 8.4 8.3 9.0 8.8 6.6 8.1 6.9 6.6 6.8 7.1 7.5 8.0 8.0 8.0 8.0 8.0 7.6 7.5 7.3 7.0 6.8 6.7 6.6 7.3 7.8 7.9 7.9 8.2 7.9 8.0 7.3 7.6 7.5 7.7 7.7 7.9
9.3 9.2 8.9 8.3 7.7 8.0 8.9 9.0 7.8 9.0 9.6 9.2 8.3 9.4 9.0 6.6 7.0 7.2 7.8 8.7 9.1 9.3 8.7 7.9 7.7 7.4 7.2 7.0 6.7 6.4 6.5 6.9 7.7 7.8 7.9 8.0 7.6 7.5 7.1 7.6 7.6 7.7 7.8 7.9
9.0 9.0 9.0 8.4 8.0 8.1 8.7 8.9 7.9 7.8 9.1 9.4 9.4 9.4 9.4 8.2 7.5 7.9 7.5 8.6 9.0 9.1 8.7 8.1 7.7 7.5 7.3 7.0 6.7 6.5 6.3 7.3 7.2 7.5 7.9 7.7 7.3 7.3 7.5 7.6 7.6 7.6 7.8 8.0
8.8 8.7 9.3 9.3 8.9 8.3 8.6 8.8 8.7 7.3 7.3 8.8 9.2 9.1 9.5 8.6 8.3 8.2 8.3 8.7 9.2 8.3 8.5 7.6 7.4 7.4 7.2 7.0 6.6 6.4 6.5 7.0 7.2 7.7 7.8 7.6 7.5 7.4 7.6 7.4 7.7 7.7 7.8 8.1
8.4 8.5 8.9 9.0 9.3 8.5 8.4 8.7 8.7 8.6 7.8 8.1 9.3 9.5 9.5 9.1 8.4 9.0 8.7 8.9 9.0 9.2 8.2 6.9 7.0 7.1 7.0 6.8 6.6 6.4 6.4 7.0 7.4 7.2 7.4 7.4 7.6 7.4 7.4 7.6 7.5 7.8 8.0 8.0
8.3 8.1 8.0 8.3 8.8 9.0 9.0 8.6 8.7 7.6 7.2 8.3 8.7 8.7 8.9 7.7 7.5 8.1 8.4 8.9 8.8 8.8 8.0 7.4 7.0 6.8 6.9 6.7 6.5 6.5 6.8 7.1 7.2 7.2 7.4 7.6 7.4 7.6 7.6 7.1 7.3 7.9 7.8 7.6
7.8 7.4 7.5 8.1 8.5 8.7 8.0 7.3 7.4 8.2 8.2 8.6 8.6 8.0 8.1 7.1 6.9 7.3 7.4 8.4 7.9 8.3 7.8 7.0 6.9 6.7 6.8 6.8 6.3 7.1 7.1 7.3 7.3 7.2 7.5 7.6 7.6 7.6 7.4 7.4 7.5 7.2 7.3 7.3
6.7 7.4 7.3 7.9 8.9 7.3 7.6 8.2 7.6 8.1 8.0 7.7 8.2 7.8 8.1 6.5 6.1 6.6 7.1 6.7 7.4 8.0 7.2 6.6 6.9 7.1 7.1 6.9 6.5 6.7 7.3 7.2 7.5 7.4 7.4 7.2 7.2 7.3 7.3 7.4 7.2 7.1 7.1 7.1
6.4 6.9 7.1 7.4 7.8 7.9 7.3 7.8 8.2 8.4 8.3 8.4 8.9 8.3 8.1 6.5 5.8 6.3 5.6 6.2 7.5 7.9 6.8 6.5 6.8 7.0 6.4 6.4 6.1 6.6 6.4 6.7 7.3 7.2 7.2 7.3 7.3 7.2 7.2 7.3 7.2 7.3 7.1 6.8
6.5 6.6 6.9 7.4 7.8 8.1 8.6 8.3 8.6 9.0 8.8 9.0 9.1 9.2 9.1 8.0 6.8 5.9 5.9 7.2 8.1 8.1 7.2 6.7 6.7 7.1 6.7 6.4 6.3 6.3 6.6 6.5 6.0 6.9 7.2 7.2 7.2 7.2 7.2 7.2 7.2 6.9 6.8 6.6
6.8 6.5 6.9 7.3 7.7 8.1 8.5 9.1 8.9 8.5 9.2 9.4 9.4 9.4 9.3 8.9 8.3 8.0 7.5 7.9 7.6 7.5 6.9 6.8 6.8 7.2 7.0 6.5 6.7 6.5 6.5 6.4 6.8 6.8 7.2 7.2 7.3 7.3 7.1 7.1 6.9 6.7 6.5 6.3
6.7 6.5 6.6 6.6 7.6 8.1 8.2 8.8 8.5 8.6 9.0 8.1 8.5 8.3 8.6 8.8 8.6 8.5 7.7 7.4 7.2 6.9 6.5 6.8 6.9 7.0 7.1 7.0 6.8 6.7 6.5 6.3 6.7 7.1 7.2 7.3 7.3 7.2 7.1 6.8 6.6 6.4 6.2 6.2
6.8 6.5 6.3 6.4 7.1 7.5 8.4 8.3 7.2 7.1 7.4 8.0 8.1 7.5 7.3 7.8 7.9 8.1 7.9 8.2 7.3 6.7 6.4 6.7 6.5 6.6 7.0 6.9 6.7 6.4 6.1 6.3 6.9 7.1 7.2 7.2 7.2 6.9 6.6 6.4 6.3 6.0 6.2 6.0
6.7 6.6 6.4 6.7 6.9 7.2 7.3 7.4 7.0 6.8 7.8 7.1 6.4 6.5 6.8 7.4 7.5 7.5 8.1 7.3 6.8 5.9 6.2 6.3 6.4 6.5 6.9 6.8 6.3 6.1 6.3 6.6 6.9 7.0 6.7 6.5 6.5 6.3 6.3 6.2 6.1 5.8 6.0 6.0
6.7 6.6 6.4 6.5 6.7 7.1 6.6 6.5 6.5 6.8 6.7 6.6 6.7 6.4 6.8 6.9 6.8 7.3 8.0 7.6 7.1 6.1 6.0 6.1 6.7 6.7 6.9 6.5 6.5 6.1 6.4 6.2 6.1 5.6 5.4 5.6 6.0 5.8 5.8 5.9 5.7 6.0 5.8 6.0
6.9 6.7 6.6 6.5 6.6 6.8 6.7 6.4 6.3 6.3 6.4 6.4 6.3 6.8 6.7 6.0 5.5 6.4 6.9 6.7 5.5 5.9 6.0 6.2 6.6 6.6 6.5 6.6 6.4 6.3 5.8 5.9 5.8 5.8 5.7 5.6 5.2 5.6 5.9 6.0 5.7 5.9 5.8 6.1
6.9 6.9 6.8 6.6 6.8 7.3 6.5 6.4 6.3 6.2 6.6 6.2 6.1 6.5 6.6 6.1 5.9 5.9 5.9 6.4 5.5 5.4 6.0 6.5 6.8 6.5 6.4 6.4 6.3 6.0 5.9 5.9 6.0 5.7 5.9 5.5 5.2 5.4 6.0 5.9 5.9 6.0 6.0 6.1
7.0 6.8 6.7 6.7 7.0 6.8 6.6 6.4 6.4 6.1 6.2 6.0 5.9 6.4 6.6 6.0 6.1 5.8 6.8 6.4 5.6 4.9 6.2 6.8 6.5 6.6 6.2 6.4 6.3 6.1 6.0 5.9 5.8 5.5 5.8 5.5 5.2 5.4 5.9 5.9 5.6 5.6 5.7 5.8
6.8 7.1 6.8 6.6 7.0 6.6 6.5 6.4 6.1 5.9 5.9 5.9 6.3 6.4 6.0 5.7 5.9 6.4 7.2 6.3 6.3 5.9 6.5 6.4 5.7 6.7 6.7 6.0 5.9 5.8 6.0 5.8 5.5 5.5 5.8 5.9 5.4 5.3 5.5 5.7 5.7 5.6 5.7 5.9
7.0 6.9 6.7 6.8 6.7 6.7 6.5 6.0 5.7 5.8 5.9 6.2 6.7 6.1 5.7 5.4 5.7 6.5 6.3 6.0 6.3 6.3 6.6 6.6 6.6 6.5 6.1 5.9 6.0 5.8 5.9 5.6 5.5 5.9 5.5 5.4 5.8 5.8 5.7 5.8 5.8 5.7 5.8 5.9
7.0 6.9 6.6 6.6 6.6 6.2 5.8 5.5 5.3 5.5 5.8 6.2 6.0 5.1 5.6 5.5 5.4 5.7 6.4 6.0 6.3 6.7 6.6 6.4 6.0 6.1 5.9 5.9 5.8 6.0 6.0 5.7 5.4 5.5 6.0 5.5 5.5 5.4 5.5 5.7 5.7 5.8 5.7 5.8
Wind_Speed
10 11 13 17 17 20 20 21 24 25 24 26 22 25 28 22 26 26 23 18 21 25 16 15 18 20 19 9 9 9 8 7 4 4 4 4 5 5 6 6 7 7 8 10
12 14 14 14 16 17 19 22 26 25 23 22 24 29 28 22 22 21 24 22 23 19 18 24 19 10 8 10 10 9 9 8 7 6 4 4 5 6 7 6 6 7 8 9
12 16 18 16 18 20 20 21 22 24 21 21 25 27 25 27 24 21 20 19 22 22 21 16 14 9 8 9 9 9 10 10 10 11 6 5 6 4 3 4 5 6 8 8
13 17 18 18 20 16 19 19 21 22 20 15 17 17 22 22 25 22 22 24 20 15 15 16 14 9 6 6 7 9 11 12 11 11 9 9 8 7 5 4 6 6 6 7
15 15 15 17 18 18 22 22 23 23 21 22 24 15 18 21 25 21 22 24 24 17 19 19 17 13 12 13 12 11 10 12 14 14 13 9 8 6 3 4 6 6 5 6
20 10 14 9 16 21 19 21 24 23 18 19 24 21 20 20 22 25 22 21 22 22 25 21 20 19 18 17 17 11 14 15 14 12 14 10 8 8 6 7 7 6 5 4
15 11 3 5 10 21 15 14 11 16 15 17 23 22 18 24 23 25 27 22 20 15 16 13 17 17 14 12 13 9 10 12 12 13 12 14 11 11 8 11 9 9 6 5
13 14 8 3 10 17 16 16 7 13 15 16 19 17 13 22 23 23 26 22 23 9 15 17 9 10 15 15 12 13 9 9 9 10 11 10 13 8 8 11 9 8 8 9
13 19 17 19 17 12 17 15 14 11 22 19 18 24 14 21 24 23 25 25 10 11 13 9 9 6 6 7 6 10 9 10 10 11 10 10 11 10 12 11 13 10 10 9
15 19 18 24 21 14 24 17 15 7 6 16 16 17 14 13 23 18 23 17 17 16 8 7 11 12 11 11 6 9 9 11 11 10 11 11 11 8 12 10 13 13 9 12
16 13 18 18 19 19 14 16 9 5 5 6 12 11 11 17 21 26 29 22 10 3 9 10 7 5 6 3 8 7 8 11 11 11 12 11 10 10 12 11 9 12 10 10
11 6 15 21 23 17 9 15 5 8 10 11 13 19 15 21 26 26 29 8 12 7 11 4 11 8 8 8 11 10 11 12 13 10 11 12 12 11 10 10 10 10 9 8
5 5 12 14 14 9 8 21 17 14 9 13 12 11 13 20 21 24 23 27 16 8 16 7 8 12 13 13 12 13 13 12 14 13 13 9 8 10 11 10 9 8 7 6
7 12 15 14 19 10 11 21 21 17 12 18 13 16 13 9 9 20 25 23 16 8 16 4 6 7 11 15 14 12 12 16 14 13 12 11 11 11 10 10 8 8 6 6
2 8 15 19 21 22 23 24 25 21 22 20 18 17 11 10 8 13 21 29 23 11 16 7 6 5 5 13 13 13 15 16 14 14 13 12 11 10 10 8 7 7 7 6
5 8 14 21 21 22 24 22 24 25 22 23 22 17 11 8 18 19 22 23 13 11 14 5 2 7 6 11 12 12 13 14 15 14 14 12 11 11 9 8 7 7 8 7
5 6 10 21 18 16 15 10 18 20 19 10 12 13 16 17 14 14 16 15 13 10 11 7 0 9 5 7 11 12 15 15 14 13 13 12 12 11 8 8 7 8 7 6
6 2 2 8 11 10 8 11 17 19 19 17 15 15 20 17 16 14 18 18 12 13 9 12 3 9 8 4 5 12 15 14 13 13 13 13 12 11 9 6 9 6 7 6
9 1 3 4 5 13 12 8 10 16 23 18 15 14 14 17 19 15 18 16 10 11 6 7 10 7 3 3 7 13 14 13 13 13 13 14 12 11 6 10 8 8 7 5
10 7 3 4 5 4 6 10 10 14 15 14 15 15 17 15 10 5 19 20 8 4 4 5 9 10 7 5 7 14 13 13 13 12 12 10 14 12 9 9 8 7 6 6
5 3 7 9 5 5 2 1 2 3 8 20 19 18 20 15 13 18 22 17 17 2 3 4 11 12 10 7 10 13 12 12 13 13 11 13 11 12 10 7 5 8 7 7
3 3 3 2 4 4 8 5 3 5 16 19 17 17 19 19 20 19 20 16 18 6 5 4 9 17 11 7 13 12 10 14 13 11 15 12 10 9 8 8 6 6 6 9
4 4 3 5 4 11 12 9 9 11 14 13 16 17 18 21 20 21 20 17 18 7 4 3 10 15 11 14 12 12 14 13 10 12 14 12 8 7 10 8 7 6 7 7
11 15 6 4 5 5 11 14 10 11 13 14 14 18 22 22 20 21 18 16 17 7 4 10 9 12 14 15 12 13 14 12 11 14 12 9 8 9 7 6 5 5 6 6
14 12 8 11 7 11 3 9 13 14 13 15 18 19 17 17 18 18 17 14 13 5 9 10 16 14 17 13 13 16 15 13 14 11 10 9 7 8 8 7 4 3 4 2
3 7 4 3 6 1 8 14 15 14 14 16 19 16 17 15 14 15 17 9 7 9 10 12 10 11 17 14 14 16 15 14 13 11 8 7 9 8 8 8 8 14 9 10
Wind_Direction
307 300 273 283 279 278 299 294 284 282 292 298 287 269 261 245 228 234 246 251 244 254 262 258 231 225 225 162 165 168 174 187 188 219 214 228 226 224 229 204 210 192 174 178
279 262 266 287 287 276 281 282 279 286 292 291 285 279 279 274 257 249 226 227 244 260 246 243 250 234 168 164 172 182 187 186 189 214 230 236 217 227 219 193 185 176 163 173
302 303 307 298 291 286 275 273 278 285 291 281 281 281 278 273 280 276 280 271 226 228 250 254 231 225 210 188 189 186 187 198 206 215 233 221 231 251 272 172 162 157 156 169
300 294 284 281 272 273 273 273 277 281 280 271 273 275 262 269 263 259 267 273 267 252 248 254 249 234 223 224 199 191 194 202 208 203 217 216 216 214 206 199 146 149 163 182
289 291 294 289 307 333 310 313 304 286 279 277 266 260 269 268 269 254 251 239 261 255 257 241 245 248 240 239 230 217 208 201 204 203 211 211 213 206 176 131 140 147 127 123
267 276 276 332 310 303 299 290 283 289 274 263 265 261 264 265 269 268 265 250 236 232 239 246 240 241 243 234 224 214 208 212 198 196 191 198 216 208 175 159 137 137 132 134
310 320 329 16 301 321 281 293 287 258 252 261 257 255 260 264 265 266 268 275 266 261 243 237 234 228 230 234 235 213 196 191 184 189 186 197 223 197 185 148 154 154 156 183
322 307 353 168 242 266 273 279 270 282 261 274 291 284 278 311 305 273 269 266 257 263 287 231 252 245 225 219 212 207 185 171 177 183 188 190 205 187 147 147 143 163 175 186
302 294 295 295 300 300 291 287 239 241 270 263 275 286 256 259 260 268 264 257 236 260 263 253 251 265 262 234 193 178 160 174 182 195 187 185 193 188 151 154 156 176 176 175
310 303 301 300 299 278 267 290 294 280 302 279 261 267 272 308 346 264 255 261 249 233 225 261 249 240 240 241 194 161 162 169 164 173 175 180 174 164 149 150 168 168 157 155
317 313 307 304 283 282 300 259 261 10 230 261 276 273 63 354 352 334 329 247 220 226 247 244 240 356 312 194 158 131 166 148 160 163 172 157 174 138 132 151 132 139 150 145
337 293 288 287 286 310 192 283 256 280 292 288 287 279 18 13 351 338 333 43 292 340 290 225 262 250 250 255 135 179 151 161 159 145 121 120 120 127 120 117 122 127 130 145
351 287 308 297 281 41 352 311 306 297 284 264 268 294 44 24 340 330 331 314 295 337 304 171 223 229 217 209 183 154 157 135 112 113 116 117 122 128 124 123 126 134 146 149
276 266 259 277 289 286 250 276 276 284 283 283 273 306 290 21 308 328 307 289 280 319 297 85 196 243 213 185 154 146 129 122 122 126 131 136 135 133 133 133 143 133 144 139
264 264 276 279 283 278 274 264 276 243 246 265 286 289 291 201 194 259 250 263 290 314 315 93 204 237 96 108 105 117 122 132 140 140 139 134 136 133 130 135 139 146 148 129
320 275 293 285 281 279 275 274 272 271 271 268 271 278 304 247 178 223 255 265 284 300 312 11 187 188 147 116 122 137 139 144 138 134 133 140 140 137 142 142 147 117 113 111
283 286 290 277 292 290 291 304 307 328 323 349 307 324 316 334 340 317 311 322 312 300 295 329 13 211 127 127 149 158 134 129 130 134 140 146 148 147 127 137 111 120 112 126
212 223 234 286 295 270 309 347 330 318 310 304 331 324 312 315 300 293 291 312 277 297 292 341 169 229 148 101 144 132 126 132 140 147 154 157 131 127 133 135 125 118 110 113
196 180 279 281 287 287 295 358 344 338 314 352 352 332 317 308 308 281 282 277 280 297 346 12 321 208 138 186 141 133 136 150 153 157 160 128 133 144 153 131 130 121 122 144
162 206 202 298 275 281 54 38 1 343 281 23 349 325 316 310 284 305 339 333 267 63 10 343 326 217 181 187 164 140 154 156 163 149 124 128 139 127 121 135 143 123 141 150
258 212 228 260 262 260 139 306 180 231 315 326 324 313 307 304 308 318 304 309 312 25 18 330 302 199 186 179 153 154 161 167 122 127 122 125 137 137 133 142 138 134 163 133
282 271 264 283 276 299 262 31 212 291 295 297 303 298 293 292 290 289 288 297 300 318 339 297 288 191 178 186 152 157 162 123 126 138 120 134 140 144 139 138 146 151 133 130
317 287 261 205 252 320 340 307 286 277 275 289 295 294 295 289 282 284 286 284 284 315 290 251 282 188 175 162 160 153 124 127 144 123 136 144 144 143 151 145 157 146 151 147
301 299 248 273 251 288 319 303 318 295 293 306 296 292 284 270 261 262 273 275 285 295 283 290 222 170 166 142 154 129 129 140 125 119 122 105 103 121 138 134 149 172 159 158
288 309 304 281 304 313 345 323 318 306 316 304 298 290 285 284 252 250 263 276 283 277 282 255 198 154 135 152 150 131 135 129 116 120 113 120 116 117 90 67 5 102 41 237
339 271 326 293 32 353 294 325 324 329 315 303 302 306 304 292 285 251 254 265 275 259 258 230 164 157 142 156 148 141 143 125 127 130 140 165 150 148 133 118 88 43 39 53